Flag for Saint Lucia Weather past 2 weeks in Vieux Fort, Saint Lucia

Now
81 °F

Passing clouds.


Feels Like: 87 °F
Forecast: 80 / 86 °F
Wind: 16 mph from East

Location: Hewanorra International Airport

Current Time: Jul 30, 2014 at 9:18:44 PM

Latest Report: Jul 30, 2014 at 8:00 PM


Visibility: N/A

Pressure: 29.98 "Hg

Humidity: 89%

Dew point: 77 °F

Location of Vieux FortLocation

Historic Weather in Vieux Fort — Graph

°F

Vieux Fort temperature yesterday

Maximum temperature yesterday: 86 °F (at 10:00 AM)
Minimum temperature yesterday: 77 °F (at 9:00 PM)
Average temperature yesterday: 83 °F

Past Weeks' High & Low Weather Summary

 TemperatureHumidityPressure
High88 °F (Jul 16, 12:00 PM)100% (Jul 30, 10:00 AM)30.09 "Hg (Jul 30, 10:00 AM)
Low75 °F (Jul 30, 10:00 AM)62% (Jul 19, 2:00 PM)29.92 "Hg (Jul 24, 5:00 AM)
Average83 °F78%30.02 "Hg
* Reported Jul 15 7:00 PM — Jul 30 7:00 PM, Vieux Fort, Weather by CustomWeather, © 2014

Note: Actual official high and low records may vary slightly from our data, if they occured in-between our weather recording intervals... More about our weather records

Advertising

Vieux Fort weather history for previous 24 hours

 ConditionsComfort  
Time TempWeatherWind HumidityBarometerVisibility
7:00 PM
Jul 30
81 °FPartly cloudy.17 mph84%29.98 "HgN/A
6:00 PM82 °FWarm.16 mph79%29.95 "HgN/A
5:00 PM82 °FSprinkles. Scattered clouds.12 mph79%29.95 "HgN/A
4:30 PM84 °FScattered clouds.12 mph74%29.95 "HgN/A
4:00 PM84 °FScattered clouds.N/A74%29.95 "HgN/A
3:00 PM86 °FPassing clouds.13 mph75%29.98 "HgN/A
2:00 PM84 °FBroken clouds.13 mph74%29.98 "HgN/A
1:00 PM82 °FBroken clouds.14 mph84%30.01 "HgN/A
12:00 PM79 °FPartly sunny.10 mph94%30.04 "HgN/A
11:00 AM77 °FLight rain. Partly sunny.9 mph94%30.07 "HgN/A
10:00 AM75 °FLots of rain. Partly sunny.14 mph100%30.07 "Hg1 mi
9:00 AM77 °FPartly sunny.17 mph94%30.07 "HgN/A
8:00 AM77 °FSprinkles. Broken clouds.8 mph94%30.04 "Hg2 mi
7:00 AM77 °FLight rain. Partly sunny.8 mph94%30.04 "HgN/A
6:00 AM77 °FSprinkles. Partly sunny.12 mph94%30.01 "Hg4 mi
5:00 AM79 °FSprinkles. Passing clouds.20 mph89%30.01 "Hg3 mi
4:00 AM79 °FSprinkles. Passing clouds.17 mph89%29.98 "Hg5 mi
3:00 AM81 °FScattered showers. Passing clouds.16 mph84%30.01 "HgN/A
2:00 AM81 °FScattered showers. Passing clouds.12 mph89%30.01 "HgN/A
1:00 AM81 °FPassing clouds.13 mph89%30.01 "HgN/A
12:00 AM81 °FPassing clouds.16 mph84%30.04 "HgN/A
11:00 PM
Jul 29
81 °FPassing clouds.16 mph84%30.04 "HgN/A
10:00 PM81 °FPassing clouds.15 mph84%30.04 "HgN/A
9:00 PM77 °FSprinkles. Passing clouds.12 mph94%30.01 "HgN/A
Weather by CustomWeather, © 2014

See weather overviewHow to use our weather pages